Time,TemperatureF,DewpointF,PressureIn,WindDirection,WindDirectionDegrees,WindSpeedMPH,WindSpeedGustMPH,Humidity,HourlyPrecipIn,Conditions,Clouds,dailyrainin,SoftwareType,DateUTC
2013-12-30 00:46:00,47.7,39.2,30.08,North,0,1.8,1.8,72,0.00,,FEW,0.00,WUHU21623XXSP,2013-12-29 22:46:00,
2013-12-30 01:46:00,46.9,38.8,30.09,North,0,0.0,0.0,73,0.00,,FEW,0.00,WUHU21623XXSP,2013-12-29 23:46:00,
2013-12-30 02:46:00,46.2,38.4,30.09,NNE,23,0.0,0.0,74,0.00,,FEW,0.00,WUHU21623XXSP,2013-12-30 00:46:00,
2013-12-30 03:46:00,45.5,38.1,30.09,North,0,0.0,0.0,75,0.00,,FEW,0.00,WUHU21623XXSP,2013-12-30 01:46:00,
2013-12-30 04:46:00,45.0,37.9,30.10,North,0,2.0,2.0,76,0.00,,FEW,0.00,WUHU21623XXSP,2013-12-30 02:46:00,
2013-12-30 05:46:00,45.0,37.6,30.11,North,0,1.4,1.4,75,0.00,,FEW,0.00,WUHU21623XXSP,2013-12-30 03:46:00,
2013-12-30 06:46:00,44.2,36.5,30.11,North,0,0.0,0.0,74,0.00,,FEW,0.00,WUHU21623XXSP,2013-12-30 04:46:00,
2013-12-30 07:46:00,44.6,37.2,30.12,NE,45,2.2,2.2,75,0.00,,FEW,0.00,WUHU21623XXSP,2013-12-30 05:46:00,
2013-12-30 08:19:00,45.5,38.4,30.12,North,0,2.0,2.0,76,0.00,,FEW,0.00,WUHU21623XXSP,2013-12-30 06:19:00,
2013-12-30 08:36:00,46.8,39.0,30.12,North,0,3.0,3.0,74,0.00,,FEW,0.00,WUHU21623XXSP,2013-12-30 06:36:00,
2013-12-30 08:41:00,47.1,39.0,30.12,North,0,1.0,3.4,73,0.00,,FEW,0.00,WUHU21623XXSP,2013-12-30 06:41:00,
2013-12-30 08:46:00,47.1,38.3,30.13,NNE,22,4.2,5.4,71,0.00,,FEW,0.00,WUHU21623XXSP,2013-12-30 06:46:00,
2013-12-30 08:51:00,47.8,38.9,30.12,North,0,1.8,5.4,71,0.00,,FEW,0.00,WUHU21623XXSP,2013-12-30 06:51:00,
2013-12-30 09:46:00,52.3,39.4,30.13,ESE,113,0.0,0.0,61,0.00,,FEW,0.00,WUHU21623XXSP,2013-12-30 07:46:00,
2013-12-30 10:46:00,56.8,36.2,30.14,North,0,0.0,0.0,46,0.00,,FEW,0.00,WUHU21623XXSP,2013-12-30 08:46:00,
2013-12-30 11:46:00,59.7,37.7,30.11,South,180,2.2,2.2,44,0.00,,FEW,0.00,WUHU21623XXSP,2013-12-30 09:46:00,
2013-12-30 12:46:00,61.0,36.3,30.11,SE,135,2.0,2.0,40,0.00,,FEW,0.00,WUHU21623XXSP,2013-12-30 10:46:00,
2013-12-30 13:46:00,61.2,36.5,30.09,ESE,113,1.2,1.2,40,0.00,,FEW,0.00,WUHU21623XXSP,2013-12-30 11:46:00,
2013-12-30 14:46:00,61.5,38.1,30.07,WSW,248,1.4,1.4,42,0.00,,FEW,0.00,WUHU21623XXSP,2013-12-30 12:46:00,
2013-12-30 15:46:00,61.2,39.0,30.09,SSE,158,0.0,0.0,44,0.00,,FEW,0.00,WUHU21623XXSP,2013-12-30 13:46:00,
2013-12-30 16:46:00,59.4,39.1,30.09,WNW,293,0.0,0.0,47,0.00,,FEW,0.00,WUHU21623XXSP,2013-12-30 14:46:00,
2013-12-30 17:16:00,58.1,39.0,30.09,ESE,112,0.0,0.0,49,0.00,,FEW,0.00,WUHU21623XXSP,2013-12-30 15:16:00,
2013-12-30 17:21:00,57.9,39.4,30.10,East,90,1.2,3.0,50,0.00,,SKC,0.00,WUHU21623XXSP,2013-12-30 15:21:00,
2013-12-30 17:26:00,57.9,39.4,30.11,ESE,112,1.8,3.7,50,0.00,,SKC,0.00,WUHU21623XXSP,2013-12-30 15:26:00,
2013-12-30 17:31:00,57.6,39.1,30.10,East,90,0.0,3.7,50,0.00,,SKC,0.00,WUHU21623XXSP,2013-12-30 15:31:00,
2013-12-30 17:36:00,57.4,39.4,30.11,East,90,0.0,2.2,51,0.00,,SKC,0.00,WUHU21623XXSP,2013-12-30 15:36:00,
2013-12-30 17:41:00,57.4,39.4,30.11,SE,135,0.0,0.0,51,0.00,,SKC,0.00,WUHU21623XXSP,2013-12-30 15:41:00,
2013-12-30 17:46:00,56.7,39.8,30.11,WNW,292,0.0,0.0,53,0.00,,SKC,0.00,WUHU21623XXSP,2013-12-30 15:46:00,
2013-12-30 17:51:00,56.3,39.4,30.10,WNW,292,0.0,0.0,53,0.00,,SKC,0.00,WUHU21623XXSP,2013-12-30 15:51:00,
2013-12-30 17:56:00,55.8,40.4,30.11,NNE,22,0.0,0.0,56,0.00,,SKC,0.00,WUHU21623XXSP,2013-12-30 15:56:00,
2013-12-30 18:01:00,55.9,40.5,30.11,ESE,112,0.0,0.0,56,0.00,,SKC,0.00,WUHU21623XXSP,2013-12-30 16:01:00,
2013-12-30 18:06:00,55.9,40.5,30.11,ESE,112,0.0,0.8,56,0.00,,SKC,0.00,WUHU21623XXSP,2013-12-30 16:06:00,
2013-12-30 18:11:00,56.1,40.7,30.11,ESE,112,0.0,0.8,56,0.00,,SKC,0.00,WUHU21623XXSP,2013-12-30 16:11:00,
2013-12-30 18:16:00,55.8,40.4,30.11,NNE,22,0.0,0.0,56,0.00,,SKC,0.00,WUHU21623XXSP,2013-12-30 16:16:00,
2013-12-30 18:21:00,55.8,40.4,30.11,East,90,2.8,3.2,56,0.00,,SKC,0.00,WUHU21623XXSP,2013-12-30 16:21:00,
2013-12-30 18:26:00,55.8,40.4,30.11,NE,45,0.0,3.2,56,0.00,,SKC,0.00,WUHU21623XXSP,2013-12-30 16:26:00,
2013-12-30 18:31:00,55.6,40.2,30.12,SE,135,0.0,1.8,56,0.00,,SKC,0.00,WUHU21623XXSP,2013-12-30 16:31:00,
2013-12-30 18:36:00,55.6,39.7,30.12,NW,315,0.0,2.4,55,0.00,,SKC,0.00,WUHU21623XXSP,2013-12-30 16:36:00,
2013-12-30 18:41:00,55.4,39.6,30.12,NW,315,0.0,2.4,55,0.00,,SKC,0.00,WUHU21623XXSP,2013-12-30 16:41:00,
2013-12-30 18:46:00,55.0,39.7,30.12,North,0,0.0,1.0,56,0.00,,SKC,0.00,WUHU21623XXSP,2013-12-30 16:46:00,
2013-12-30 18:51:00,54.9,39.6,30.12,NNE,22,0.0,2.0,56,0.00,,SKC,0.00,WUHU21623XXSP,2013-12-30 16:51:00,
2013-12-30 18:56:00,54.5,39.2,30.12,NW,315,1.4,2.0,56,0.00,,SKC,0.00,WUHU21623XXSP,2013-12-30 16:56:00,
2013-12-30 19:01:00,54.3,39.5,30.12,NE,45,0.0,3.0,57,0.00,,SKC,0.00,WUHU21623XXSP,2013-12-30 17:01:00,
2013-12-30 19:06:00,54.0,39.2,30.12,North,0,1.4,3.4,57,0.00,,SKC,0.00,WUHU21623XXSP,2013-12-30 17:06:00,
2013-12-30 19:11:00,54.0,39.6,30.12,NW,315,1.4,3.4,58,0.00,,SKC,0.00,WUHU21623XXSP,2013-12-30 17:11:00,
2013-12-30 19:16:00,53.8,39.5,30.12,NNW,337,0.0,2.8,58,0.00,,SKC,0.00,WUHU21623XXSP,2013-12-30 17:16:00,
2013-12-30 19:21:00,53.8,39.9,30.12,NNW,337,0.0,2.8,59,0.00,,SKC,0.00,WUHU21623XXSP,2013-12-30 17:21:00,
2013-12-30 19:26:00,53.2,39.3,30.12,East,90,0.0,1.4,59,0.00,,SKC,0.00,WUHU21623XXSP,2013-12-30 17:26:00,
2013-12-30 19:31:00,53.1,39.2,30.11,North,0,0.0,1.2,59,0.00,,SKC,0.00,WUHU21623XXSP,2013-12-30 17:31:00,
2013-12-30 19:36:00,52.9,39.1,30.12,North,0,0.0,1.2,59,0.00,,SKC,0.00,WUHU21623XXSP,2013-12-30 17:36:00,
2013-12-30 19:41:00,52.7,39.3,30.11,NNE,22,0.0,1.0,60,0.00,,SKC,0.00,WUHU21623XXSP,2013-12-30 17:41:00,
2013-12-30 19:46:00,52.5,39.1,30.11,ESE,112,0.0,1.4,60,0.00,,SKC,0.00,WUHU21623XXSP,2013-12-30 17:46:00,
2013-12-30 19:51:00,52.3,39.4,30.11,ENE,67,0.0,1.4,61,0.00,,SKC,0.00,WUHU21623XXSP,2013-12-30 17:51:00,
2013-12-30 19:56:00,52.2,39.7,30.12,ENE,67,0.0,0.0,62,0.00,,SKC,0.00,WUHU21623XXSP,2013-12-30 17:56:00,
2013-12-30 20:01:00,52.0,39.5,30.12,North,0,1.0,1.0,62,0.00,,SKC,0.00,WUHU21623XXSP,2013-12-30 18:01:00,
2013-12-30 20:06:00,52.0,39.5,30.12,North,0,0.0,1.2,62,0.00,,SKC,0.00,WUHU21623XXSP,2013-12-30 18:06:00,
2013-12-30 20:11:00,51.8,39.7,30.12,NNW,337,0.0,1.2,63,0.00,,SKC,0.00,WUHU21623XXSP,2013-12-30 18:11:00,
2013-12-30 20:16:00,52.0,40.3,30.12,NNE,22,1.0,1.4,64,0.00,,SKC,0.00,WUHU21623XXSP,2013-12-30 18:16:00,
2013-12-30 20:21:00,51.6,39.9,30.12,NW,315,0.0,1.4,64,0.00,,SKC,0.00,WUHU21623XXSP,2013-12-30 18:21:00,
2013-12-30 20:26:00,51.4,40.1,30.12,NNW,337,1.2,1.8,65,0.00,,SKC,0.00,WUHU21623XXSP,2013-12-30 18:26:00,
2013-12-30 20:31:00,51.6,40.3,30.12,NNE,22,0.0,2.2,65,0.00,,SKC,0.00,WUHU21623XXSP,2013-12-30 18:31:00,
2013-12-30 20:36:00,51.4,40.5,30.12,NNE,22,0.0,2.8,66,0.00,,SKC,0.00,WUHU21623XXSP,2013-12-30 18:36:00,
2013-12-30 20:41:00,51.4,40.5,30.12,NNW,337,0.0,2.8,66,0.00,,SKC,0.00,WUHU21623XXSP,2013-12-30 18:41:00,
2013-12-30 20:46:00,51.4,40.5,30.12,North,0,1.4,2.2,66,0.00,,SKC,0.00,WUHU21623XXSP,2013-12-30 18:46:00,
2013-12-30 20:51:00,51.3,40.4,30.12,NNE,22,1.8,1.8,66,0.00,,SKC,0.00,WUHU21623XXSP,2013-12-30 18:51:00,
2013-12-30 20:56:00,51.1,40.6,30.12,East,90,0.0,2.2,67,0.00,,SKC,0.00,WUHU21623XXSP,2013-12-30 18:56:00,
2013-12-30 21:01:00,50.9,40.8,30.13,North,0,1.0,2.2,68,0.00,,SKC,0.00,WUHU21623XXSP,2013-12-30 19:01:00,
2013-12-30 21:06:00,50.7,40.6,30.13,ENE,67,0.0,3.0,68,0.00,,SKC,0.00,WUHU21623XXSP,2013-12-30 19:06:00,
2013-12-30 21:11:00,50.7,41.0,30.13,North,0,0.0,3.0,69,0.00,,SKC,0.00,WUHU21623XXSP,2013-12-30 19:11:00,
2013-12-30 21:16:00,50.7,41.0,30.13,NNE,22,0.0,2.0,69,0.00,,SKC,0.00,WUHU21623XXSP,2013-12-30 19:16:00,
2013-12-30 21:21:00,50.7,41.0,30.13,NNW,337,0.0,1.4,69,0.00,,SKC,0.00,WUHU21623XXSP,2013-12-30 19:21:00,
2013-12-30 21:26:00,50.7,41.4,30.14,NNW,337,0.0,1.4,70,0.00,,SKC,0.00,WUHU21623XXSP,2013-12-30 19:26:00,
2013-12-30 21:31:00,50.4,41.1,30.14,WNW,292,0.0,0.8,70,0.00,,SKC,0.00,WUHU21623XXSP,2013-12-30 19:31:00,
2013-12-30 21:36:00,50.4,41.1,30.14,NNE,22,0.0,0.8,70,0.00,,SKC,0.00,WUHU21623XXSP,2013-12-30 19:36:00,
2013-12-30 21:41:00,50.4,41.1,30.14,North,0,0.0,2.0,70,0.00,,SKC,0.00,WUHU21623XXSP,2013-12-30 19:41:00,
2013-12-30 21:46:00,50.4,41.1,30.14,North,0,0.0,2.0,70,0.00,,SKC,0.00,WUHU21623XXSP,2013-12-30 19:46:00,
2013-12-30 21:51:00,50.4,41.5,30.14,NNW,337,1.8,2.8,71,0.00,,SKC,0.00,WUHU21623XXSP,2013-12-30 19:51:00,
2013-12-30 21:56:00,50.4,41.5,30.14,NNE,22,3.4,3.4,71,0.00,,SKC,0.00,WUHU21623XXSP,2013-12-30 19:56:00,
2013-12-30 22:01:00,50.7,41.7,30.14,NNE,22,5.6,6.9,71,0.00,,SKC,0.00,WUHU21623XXSP,2013-12-30 20:01:00,
2013-12-30 22:06:00,51.1,41.8,30.14,North,0,4.2,6.9,70,0.00,,SKC,0.00,WUHU21623XXSP,2013-12-30 20:06:00,
2013-12-30 22:11:00,51.3,42.0,30.14,NW,315,2.8,6.9,70,0.00,,SKC,0.00,WUHU21623XXSP,2013-12-30 20:11:00,
2013-12-30 22:16:00,51.4,42.0,30.14,NNW,337,0.8,5.6,70,0.00,,SKC,0.00,WUHU21623XXSP,2013-12-30 20:16:00,
2013-12-30 22:21:00,51.6,41.9,30.14,North,0,0.0,3.0,69,0.00,,SKC,0.00,WUHU21623XXSP,2013-12-30 20:21:00,
2013-12-30 22:26:00,51.4,41.7,30.14,NE,45,0.0,2.2,69,0.00,,SKC,0.00,WUHU21623XXSP,2013-12-30 20:26:00,
2013-12-30 22:31:00,51.3,41.2,30.14,NNE,22,0.0,2.2,68,0.00,,SKC,0.00,WUHU21623XXSP,2013-12-30 20:31:00,
2013-12-30 22:36:00,51.3,41.2,30.14,WNW,292,0.0,1.2,68,0.00,,SKC,0.00,WUHU21623XXSP,2013-12-30 20:36:00,
2013-12-30 22:41:00,51.3,41.2,30.14,NW,315,0.0,1.2,68,0.00,,SKC,0.00,WUHU21623XXSP,2013-12-30 20:41:00,
2013-12-30 22:46:00,51.3,41.2,30.14,WNW,292,0.0,2.2,68,0.00,,SKC,0.00,WUHU21623XXSP,2013-12-30 20:46:00,
2013-12-30 22:51:00,51.1,41.0,30.14,NW,315,0.0,2.2,68,0.00,,SKC,0.00,WUHU21623XXSP,2013-12-30 20:51:00,
2013-12-30 22:56:00,51.1,41.0,30.14,WNW,292,0.0,2.8,68,0.00,,SKC,0.00,WUHU21623XXSP,2013-12-30 20:56:00,
2013-12-30 23:01:00,51.1,41.0,30.14,North,0,1.0,2.8,68,0.00,,SKC,0.00,WUHU21623XXSP,2013-12-30 21:01:00,
2013-12-30 23:06:00,51.1,41.0,30.14,NNW,337,0.0,1.8,68,0.00,,SKC,0.00,WUHU21623XXSP,2013-12-30 21:06:00,
2013-12-30 23:46:00,50.2,41.3,30.14,SW,225,0.0,0.0,71,0.00,,SKC,0.00,WUHU21623XXSP,2013-12-30 21:46:00,